www.pogodaiklimat.ru

ПОГОДА в Коппер Харбор, MI

  • Прогноз погоды в Коппер Харбор
  • Монитор погоды в Коппер Харбор
  • Климат в Коппер Харбор

АРХИВ ПОГОДЫ в Коппер Харбор

Время (UTC), дата Ветер
(напр.,м/с)
 
Видим.   Явления Облачность Т
(С)
Тd
(С)
f
(%)
Тe
(С)
Тes
(С)
Комфортность

P
(гПа)

Po
(гПа)
Тmin
(С)
Tmax
(С)
R
(мм)
SD
(см)
19:51 18.08 С  4
{11} 
н/о    н/о  +18.3  +16.7  90  +18  +18    1002.0  979.9      29.7   
20:51 18.08 С  10
{17} 
н/о    н/о  +18.9  +16.1  84  +19  +19    1003.2  981.2         
21:51 18.08 СЗ  6
{13} 
н/о    н/о  +18.3  +15.6  84  +18  +18    1004.7  982.9         
22:51 18.08 СЗ  4
{9} 
н/о    н/о  +17.8  +13.3  75  +17  +17    1005.1  983.2  +17.8  +20.0  29.7   
23:51 18.08 СЗ  5
{10} 
н/о    н/о  +17.2  +12.2  72  +16  +16    1005.7  983.5         
00:51 19.08 нст  н/о    н/о  +17.2  +12.2  72  +17  +17    1006.4  984.2         
01:51 19.08 СЗ  4
{9} 
н/о    н/о  +18.3  +11.1  63  +18  +18    1007.1  985.2         
02:51 19.08 нст  3
{13} 
н/о    н/о  +18.9  +10.0  56  +20  +20    1007.7  985.8         
03:51 19.08 СЗ  4
{10} 
н/о    н/о  +18.3  +11.1  63  +18  +18    1007.8  985.8         
04:51 19.08 СЗ  5
{10} 
н/о    н/о  +18.3  +9.4  56  +18  +18    1008.5  986.5  +16.7  +18.9     
05:51 19.08 СЗ  н/о    н/о  +16.7  +10.0  65  +16  +16    1008.8  986.8         
06:51 19.08 З  н/о    н/о  +17.8  +10.6  63  +18  +18    1009.3  987.2         
07:51 19.08 СЗ  7
{14} 
н/о    н/о  +17.8  +10.6  63  +17  +17    1009.7  987.5         
08:51 19.08 СЗ  4
{13} 
н/о    н/о  +18.3  +11.1  63  +18  +18    1010.1  988.1         
09:51 19.08 СЗ  н/о    н/о  +17.8  +11.1  65  +18  +18    1010.7  988.5         
10:51 19.08 нст  н/о    н/о  +17.8  +10.6  63  +18  +18    1011.4  989.1  +16.7  +18.3     
11:51 19.08 СЗ  н/о    н/о  +19.4  +11.7  61  +21  +21  комфорт  1012.0  989.8         
12:51 19.08 нст  н/о    н/о  +21.1  +11.1  53  +23  +23  комфорт  1012.2  990.1         
13:51 19.08 СЗ  н/о    н/о  +22.2  +10.0  46  +24  +24  комфорт  1012.2  990.1         
14:51 19.08 нст  н/о    н/о  +23.9  +9.4  40  +25  +25  комфорт  1012.2  990.1         
15:51 19.08 нст  н/о    н/о  +24.4  +8.9  37  +25  +25  комфорт  1012.2  990.5         
16:51 19.08 СЗ  н/о    н/о  +25.0  +8.9  36  +26  +26  жарко  1012.5  990.5  +17.8  +25.0     
17:51 19.08 СЗ  3
{10} 
н/о    н/о  +24.4  +8.3  36  +25  +25  комфорт  1012.7  990.5         
18:51 19.08 З  4
{10} 
н/о    н/о  +25.0  +10.0  39  +26  +26  жарко  1012.1  990.1         
19:51 19.08 З  4
{8} 
н/о    н/о  +25.6  +10.6  39  +27  +27  жарко  1011.6  989.8         
20:51 19.08 З  4
{8} 
н/о    н/о  +25.0  +11.1  42  +26  +26  жарко  1011.2  989.1         
21:51 19.08 З  4
{8} 
н/о    н/о  +24.4  +11.1  43  +26  +26  жарко  1010.9  988.8         
22:51 19.08 З  н/о    н/о  +24.4  +11.1  43  +26  +26  жарко  1011.1  989.1  +24.4  +25.6     
23:51 19.08 З  н/о    н/о  +21.7  +12.2  55  +24  +24  комфорт  1011.1  989.1         
00:51 20.08 З  н/о    н/о  +21.7  +11.1  51  +24  +24  комфорт  1011.3  989.5         
01:51 20.08 З  3
{9} 
н/о    н/о  +21.1  +11.7  55  +23  +23  комфорт  1011.7  989.8         
02:51 20.08 З  4
{9} 
н/о    н/о  +20.6  +11.7  57  +23  +23  комфорт  1011.8  989.8         
03:51 20.08 З  4
{8} 
н/о    н/о  +21.1  +12.2  57  +23  +23  комфорт  1012.0  990.1         
04:51 20.08 З  4
{10} 
н/о    н/о  +22.8  +12.8  53  +26  +26  жарко  1012.2  990.5  +20.6  +24.4     
05:51 20.08 З  4
{9} 
н/о    н/о  +22.8  +13.3  55  +26  +26  жарко  1012.2  990.5         
06:51 20.08 СЗ  4
{11} 
н/о    н/о  +23.3  +13.3  53  +26  +26  жарко  1012.5  990.8         
07:51 20.08 СЗ  4
{9} 
н/о    н/о  +22.2  +13.9  59  +25  +25  комфорт  1012.8  990.8         
08:51 20.08     н/о    н/о  +21.7  +14.4  63  +25  +25  комфорт  1012.6  990.8         
09:51 20.08   н/о    н/о  +19.4  +14.4  73  +21  +21  комфорт  1012.0  990.1         
10:51 20.08 нст  н/о    н/о  +20.0  +15.0  73  +23  +23  комфорт  1011.4  989.5  +18.9  +23.3     
11:51 20.08 нст  н/о    н/о  +21.7  +16.1  70  +25  +25  комфорт  1011.2  989.5         
12:51 20.08 ЮЗ  4
{9} 
н/о    н/о  +21.1  +15.6  71  +24  +24  комфорт  1011.1  989.1         
13:51 20.08 С  н/о    н/о  +22.8  +17.2  71  +28  +28  душно  1012.6  990.8         
14:51 20.08 нст  н/о    н/о  +22.8  +17.2  71  +28  +28  душно  1013.6  991.5         
15:51 20.08 СЗ  6
{12} 
н/о    н/о  +21.7  +15.6  68  +25  +25  комфорт  1013.1  991.1         
16:51 20.08 нст  н/о    н/о  +21.1  +16.7  76  +25  +25  комфорт  1012.1  990.1  +20.0  +24.4     
17:51 20.08 В  н/о    н/о  +21.7  +17.2  76  +26  +26  душно  1011.0  989.1         
18:51 20.08 В  н/о    н/о  +20.0  +17.2  84  +24  +24  комфорт  1011.7  989.8         

 

Местоположение метеостанции Copper Harbor: широта 47.4669 долгота -87.8750 высота над уровнем моря 190 м.

В архиве по умолчанию представлена погода в Коппер Харбор за последние 1-2 суток. Обновление информации о фактической погоде в базе происходит ежечасно! Архивные данные за месяц целиком и за предыдущие месяцы Вы можете получить, выбрав интересующий диапазон дат из раскрывающегося списка и нажав кнопку "Ввод!".

Внимание! Архив погоды МЕТАР в базе сайта хранится не более 60 дней. Нет смысла пытаться выбрать более раннюю дату.

Внимание! Время в таблицах - всемирное. Для получения местного времени необходимо прибавить поправку, которая в Коппер Харбор равна -5 ч.

Ветер - указаны скорость ветра в м/с и направление, откуда дует ветер: С - северный, СВ - северо-восточный, В - восточный, ЮВ - юго-восточный, Ю - южный, ЮЗ - юго-западный, З - западный, СЗ - северо-западный.
Видимость - горизонтальная дальность видимости в метрах или километрах. При видимости от 1 до 10 км при отсутствии осадков обычно наблюдается дымка, при ухудшении видимости до 1 км и менее - туман. В сухую погоду видимость может ухудшаться дымом, пылью или мглою.
Атмосферные явления - указаны явления, наблюдавшиеся в указанный момент времени.
Облачность - указаны через наклонную черту верхняя и нижняя облачность в баллах и высота нижней границы облаков в метрах. Внимание: облачность, как и прочие метеорологические величины в США измеряются автоматическими метеостанциями. Указанные значения в баллах носят условный характер и показывают процент времени, в течение которого, в среднем, лазерный луч высотомера отражался от облаков обратно.
T - Температура воздуха - температура, измеренная на высоте 2 м над землей.
Td - Температура точки росы - температура, при понижении до которой содержащийся в воздухе водяной пар достигнет насыщения.
f - Относительная влажность воздуха - влажноcть воздуха, измеренная на высоте 2 м над землей.
Te - Эффективная температура - температура, которую ощущает одетый по сезону человек в тени. Характеристика душности погоды. При расчете учитывается влияние влажности воздуха и скорости ветра на теплоощущения человека.
Tes - Эффективная температура на солнце - температура, которую ощущает человек, с поправкой на солнечный нагрев. Характеристика знойности погоды. Зависит от высоты солнца над горизонтом, облачности и скорости ветра. Ночью, в пасмурную погоду, а также при ветре 12 м/с и более поправка равна нулю.
P - Атмосферное давление - приведенное к уровню моря атмосферное давление.
Po - Атмосферное давление - измеренное на уровне метеостанции атмосферное давление.
Tmin - Минимальная температура - минимум температуры воздуха на высоте 2 м над землей.
Tmax - Максимальная температура - максимум температуры воздуха на высоте 2 м над землей.
R - Количество осадков - Количество выпавших осадков за 3 или 6 часов, мм.
SD - Снежный покров - Высота снежного покрова, см.